GW5874 Weather Reports


time (UTC)temp
F
wind
direction
speed
knots
gust
knots
rain 1hr
in
rain 24hr
in
rain mn
in
humidity
%
barometer
mb
20260504021833 67 235 0.0 0.0 0.00 0.00 0.00 57 1011.5
20260504021331 67 202 0.9 0.9 0.00 0.00 0.00 58 1011.5
20260504020828 67 163 2.6 3.5 0.00 0.00 0.00 58 1011.3
20260504020324 67 221 0.0 0.0 0.00 0.00 0.00 59 1011.4
20260504015820 67 218 0.0 0.0 0.00 0.00 0.00 58 1011.3
20260504015317 68 206 0.0 0.9 0.00 0.00 0.00 58 1011.3
20260504014813 69 206 0.9 0.9 0.00 0.00 0.00 59 1011.2
20260504014309 69 214 0.9 0.9 0.00 0.00 0.00 54 1011.4
20260504013807 69 189 1.7 2.6 0.00 0.00 0.00 54 1011.2
20260504013305 70 223 0.0 0.0 0.00 0.00 0.00 54 1011.2
20260504012800 70 197 1.7 2.6 0.00 0.00 0.00 53 1011.4
20260504012259 71 212 0.9 0.9 0.00 0.00 0.00 52 1011.1
20260504011755 72 192 1.7 2.6 0.00 0.00 0.00 50 1011.4
20260504011252 72 225 0.0 0.0 0.00 0.00 0.00 49 1011.3
20260504010748 72 213 0.9 2.6 0.00 0.00 0.00 49 1011.1
20260504010244 73 217 0.9 0.9 0.00 0.00 0.00 48 1011.1
20260504005741 73 219 1.7 2.6 0.00 0.00 0.00 47 1011.2
20260504005238 73 201 0.9 0.9 0.00 0.00 0.00 47 1011.1
20260504004736 74 166 0.9 0.9 0.00 0.00 0.00 46 1011.2
20260504004232 74 198 3.5 4.3 0.00 0.00 0.00 45 1011.1
20260504003729 75 202 2.6 3.5 0.00 0.00 0.00 44 1011.2
20260504003226 75 165 1.7 2.6 0.00 0.00 0.00 44 1011.2
20260504002723 76 227 1.7 3.5 0.00 0.00 0.00 43 1011.2
20260504002219 76 241 2.6 4.3 0.00 0.00 0.00 43 1011.3
20260504001718 77 230 3.5 4.3 0.00 0.00 0.00 41 1011.2
20260504001214 77 191 2.6 3.5 0.00 0.00 0.00 41 1011.2
20260504000711 77 179 3.5 3.5 0.00 0.00 0.00 40 1011.4
20260504000208 77 253 2.6 3.5 0.00 0.00 0.00 40 1011.5
20260503235706 78 216 4.3 4.3 0.00 0.00 0.00 38 1011.5
20260503235203 78 179 4.3 4.3 0.00 0.00 0.00 39 1011.6
20260503234700 79 260 1.7 2.6 0.00 0.00 0.00 38 1011.8
20260503234159 79 217 3.5 6.1 0.00 0.00 0.00 38 1011.9
20260503233655 78 330 1.7 2.6 0.00 0.00 0.00 39 1011.7
20260503233151 78 281 0.0 0.0 0.00 0.00 0.00 37 1011.9
20260503232648 78 269 0.0 0.9 0.00 0.00 0.00 38 1012.0
20260503232145 78 271 0.9 0.9 0.00 0.00 0.00 37 1012.0
20260503231643 79 317 0.9 0.9 0.00 0.00 0.00 36 1012.0
20260503231139 79 264 0.0 0.9 0.00 0.00 0.00 35 1012.0
20260503230636 79 271 2.6 3.5 0.00 0.00 0.00 36 1012.0
20260503230134 79 259 3.5 4.3 0.00 0.00 0.00 33 1012.0
20260503225631 80 194 3.5 4.3 0.00 0.00 0.00 32 1012.2
20260503225130 80 241 0.9 0.9 0.00 0.00 0.00 32 1011.9
20260503224628 80 270 2.6 4.3 0.00 0.00 0.00 32 1012.1
20260503224126 81 222 2.6 3.5 0.00 0.00 0.00 30 1012.1
20260503223624 81 284 1.7 3.5 0.00 0.00 0.00 29 1012.1
20260503223119 82 302 3.5 3.5 0.00 0.00 0.00 31 1012.1
20260503222617 81 276 2.6 4.3 0.00 0.00 0.00 30 1012.2
20260503222115 82 277 0.9 0.9 0.00 0.00 0.00 35 1012.2
20260503221613 83 203 2.6 3.5 0.00 0.00 0.00 34 1012.0
20260503221110 83 262 0.9 0.9 0.00 0.00 0.00 36 1012.2
20260503220607 82 233 3.5 4.3 0.00 0.00 0.00 36 1012.1
20260503220103 81 222 0.9 0.9 0.00 0.00 0.00 37 1012.3
20260503215600 80 161 6.1 8.7 0.00 0.00 0.00 34 1012.4
20260503215057 81 241 5.2 8.7 0.00 0.00 0.00 36 1012.5
20260503214555 82 207 2.6 3.5 0.00 0.00 0.00 36 1012.4
20260503214051 82 274 1.7 3.5 0.00 0.00 0.00 33 1012.5
20260503213550 83 256 4.3 6.1 0.00 0.00 0.00 34 1012.7
20260503213046 81 268 0.0 0.9 0.00 0.00 0.00 39 1012.7
20260503212544 80 188 5.2 8.7 0.00 0.00 0.00 35 1012.7
20260503212042 81 231 8.7 13.0 0.00 0.00 0.00 33 1013.1
20260503211538 82 203 2.6 6.1 0.00 0.00 0.00 38 1012.8
20260503211033 82 266 0.9 0.9 0.00 0.00 0.00 41 1013.1
20260503210531 82 249 2.6 3.5 0.00 0.00 0.00 35 1013.3
20260503210026 81 269 1.7 2.6 0.00 0.00 0.00 39 1013.3
20260503205523 81 282 1.7 3.5 0.00 0.00 0.00 38 1013.2
20260503205020 81 229 1.7 2.6 0.00 0.00 0.00 40 1013.4
20260503204517 80 236 6.1 9.6 0.00 0.00 0.00 37 1013.6
20260503204014 81 243 6.1 8.7 0.00 0.00 0.00 36 1013.5
20260503203511 81 184 9.6 10.4 0.00 0.00 0.00 38 1013.7
20260503203008 82 270 1.7 2.6 0.00 0.00 0.00 40 1013.8
20260503202506 80 267 0.9 0.9 0.00 0.00 0.00 41 1014.0
20260503202004 80 227 5.2 7.0 0.00 0.00 0.00 39 1014.1
20260503201501 80 301 2.6 3.5 0.00 0.00 0.00 42 1013.9
20260503200959 79 181 5.2 6.1 0.00 0.00 0.00 38 1014.2
20260503200455 79 227 6.1 8.7 0.00 0.00 0.00 38 1014.3
20260503195951 79 250 1.7 2.6 0.00 0.00 0.00 40 1014.2
20260503195449 79 206 4.3 7.0 0.00 0.00 0.00 38 1014.3
20260503194945 79 196 7.8 12.2 0.00 0.00 0.00 40 1014.3
20260503194442 79 186 7.8 10.4 0.00 0.00 0.00 39 1014.6
20260503193937 79 210 6.1 7.0 0.00 0.00 0.00 41 1014.5
20260503193433 80 274 0.9 0.9 0.00 0.00 0.00 41 1014.6
20260503192929 79 258 1.7 2.6 0.00 0.00 0.00 44 1014.7
20260503192426 78 102 6.1 8.7 0.00 0.00 0.00 42 1014.6
20260503191921 79 202 7.0 8.7 0.00 0.00 0.00 39 1014.8
20260503191419 79 239 7.0 9.6 0.00 0.00 0.00 40 1015.0
20260503190915 78 253 3.5 4.3 0.00 0.00 0.00 45 1015.0
20260503190413 79 210 4.3 4.3 0.00 0.00 0.00 39 1015.0
20260503185909 78 252 0.0 0.9 0.00 0.00 0.00 44 1015.0
20260503185406 77 309 3.5 4.3 0.00 0.00 0.00 45 1015.4
20260503184905 78 218 7.8 9.6 0.00 0.00 0.00 40 1015.2
20260503184402 76 334 5.2 6.1 0.00 0.00 0.00 44 1015.3
20260503183858 77 220 6.1 8.7 0.00 0.00 0.00 38 1015.4
20260503183355 76 230 2.6 3.5 0.00 0.00 0.00 44 1015.3
20260503182852 76 61 4.3 7.0 0.00 0.00 0.00 41 1015.3
20260503182351 76 251 0.0 0.9 0.00 0.00 0.00 44 1015.6
20260503181847 76 188 10.4 13.0 0.00 0.00 0.00 41 1015.6
20260503181345 77 188 7.8 9.6 0.00 0.00 0.00 42 1015.8
20260503180841 76 277 1.7 2.6 0.00 0.00 0.00 46 1015.8
20260503180339 76 221 6.1 8.7 0.00 0.00 0.00 45 1015.9
20260503175835 75 237 3.5 4.3 0.00 0.00 0.00 44 1016.1
20260503175334 76 228 7.8 8.7 0.00 0.00 0.00 42 1016.3
20260503174834 75 239 3.5 3.5 0.00 0.00 0.00 46 1016.3
20260503174334 74 270 1.7 2.6 0.00 0.00 0.00 43 1016.3
20260503173834 74 231 5.2 7.0 0.00 0.00 0.00 45 1016.4
20260503173330 74 233 2.6 3.5 0.00 0.00 0.00 45 1016.5
20260503172827 75 229 3.5 4.3 0.00 0.00 0.00 47 1016.7
20260503172325 75 200 4.3 6.1 0.00 0.00 0.00 42 1016.6
20260503171820 75 240 2.6 3.5 0.00 0.00 0.00 45 1016.6
20260503171318 74 206 0.9 2.6 0.00 0.00 0.00 46 1016.6
20260503170815 74 318 1.7 2.6 0.00 0.00 0.00 48 1016.7
20260503170311 74 229 3.5 4.3 0.00 0.00 0.00 44 1016.8
20260503150704 66 209 9.6 10.4 0.00 0.00 0.00 49 1018.0
20260503150200 65 212 0.9 2.6 0.00 0.00 0.00 53 1018.1
20260503140124 57 195 3.5 4.3 0.00 0.00 0.00 66 1018.6
20260503131053 47 123 0.0 0.0 0.00 0.00 0.00 99 1018.6
20260503130550 46 178 0.0 0.0 0.00 0.00 0.00 99 1018.8
20260503110441 35 280 0.0 0.0 0.00 0.00 0.00 98 1018.5
20260503090332 35 263 0.0 0.0 0.00 0.00 0.00 98 1018.9
20260503081300 35 302 0.0 0.0 0.00 0.00 0.00 97 1019.0
20260503080755 35 302 0.0 0.0 0.00 0.00 0.00 97 1019.3
20260503080253 36 302 0.0 0.0 0.00 0.00 0.00 97 1019.2
20260503072729 36 302 0.0 0.0 0.00 0.00 0.00 96 1019.5
20260503072226 36 302 0.0 0.0 0.00 0.00 0.00 96 1019.7
20260503071723 36 302 0.0 0.0 0.00 0.00 0.00 96 1019.7
20260503071220 37 302 0.0 0.0 0.00 0.00 0.00 96 1019.7
20260503070716 37 302 0.0 0.0 0.00 0.00 0.00 96 1019.6
20260503070215 37 302 0.0 0.0 0.00 0.00 0.00 96 1019.8
20260503060139 38 302 0.0 0.0 0.00 0.00 0.00 95 1020.2
20260503054626 38 302 0.0 0.0 0.00 0.00 0.00 95 1020.3
20260503054123 38 302 0.0 0.0 0.00 0.00 0.00 94 1020.3
20260503053621 39 302 0.0 0.0 0.00 0.00 0.00 94 1020.4
20260503053119 39 302 0.0 0.0 0.00 0.00 0.00 94 1020.2
20260503052615 39 302 0.0 0.0 0.00 0.00 0.00 94 1020.3
20260503052112 39 302 0.0 0.0 0.00 0.00 0.00 94 1020.4
20260503051607 39 302 0.0 0.0 0.00 0.00 0.00 94 1020.3
20260503051105 39 302 0.0 0.0 0.00 0.00 0.00 93 1020.5
20260503050601 39 302 0.0 0.0 0.00 0.00 0.00 93 1020.3
20260503050058 39 302 0.0 0.0 0.00 0.00 0.00 93 1020.3
20260503045555 40 303 0.0 0.0 0.00 0.00 0.00 93 1020.3
20260503045052 40 303 0.0 0.0 0.00 0.00 0.00 93 1020.2
20260503044549 40 303 0.0 0.0 0.00 0.00 0.00 92 1020.4
20260503044047 39 302 0.0 0.0 0.00 0.00 0.00 92 1020.4
20260503043543 40 302 0.0 0.0 0.00 0.00 0.00 92 1020.3
20260503043040 40 302 0.0 0.0 0.00 0.00 0.00 91 1020.2
20260503042537 41 302 0.0 0.0 0.00 0.00 0.00 91 1020.1
20260503042033 41 302 0.0 0.0 0.00 0.00 0.00 91 1020.2
20260503041530 41 302 0.0 0.0 0.00 0.00 0.00 90 1020.1
20260503041028 41 302 0.0 0.0 0.00 0.00 0.00 90 1020.1
20260503040525 41 302 0.0 0.0 0.00 0.00 0.00 90 1020.2
20260503040022 41 303 0.0 0.0 0.00 0.00 0.00 89 1020.0
20260503035519 42 302 0.0 0.0 0.00 0.00 0.00 89 1019.9
20260503035016 42 302 0.0 0.0 0.00 0.00 0.00 88 1020.1
20260503034513 42 302 0.0 0.0 0.00 0.00 0.00 88 1020.3
20260503034010 42 302 0.0 0.0 0.00 0.00 0.00 88 1020.3
20260503033507 42 302 0.0 0.0 0.00 0.00 0.00 88 1020.4
20260503033005 42 302 0.0 0.0 0.00 0.00 0.00 87 1020.4
20260503032504 42 302 0.0 0.0 0.00 0.00 0.00 87 1020.2
20260503032001 43 302 0.0 0.0 0.00 0.00 0.00 86 1020.1
20260503031459 43 302 0.0 0.0 0.00 0.00 0.00 85 1020.1
20260503030955 43 302 0.0 0.0 0.00 0.00 0.00 85 1020.1
20260503030451 44 302 0.0 0.0 0.00 0.00 0.00 85 1020.0
20260503025949 44 302 0.0 0.0 0.00 0.00 0.00 85 1020.0
20260503025445 44 303 0.0 0.0 0.00 0.00 0.00 84 1020.1
20260503024943 44 303 0.0 0.0 0.00 0.00 0.00 83 1019.8
20260503024439 45 303 0.0 0.0 0.00 0.00 0.00 83 1020.1
20260503023937 45 302 0.0 0.0 0.00 0.00 0.00 82 1020.0
20260503023434 45 302 0.0 0.0 0.00 0.00 0.00 81 1019.8
20260503022930 46 303 0.0 0.0 0.00 0.00 0.00 80 1020.0
20260503022425 46 303 0.0 0.0 0.00 0.00 0.00 80 1019.9